Location: *
(50.9167°S, 179.4000°W)
Time: 17:53:24
(UTC+00:00)

CZ-2C R/B - Pass Details

Date: 22 June 2024
Orbit: 665 x 779 km, 98.4° (Epoch: 18 July)

Event Time Altitude Azimuth Distance (km) Brightness Sun altitude
Rises 05:32:13 0° 176° (S) 3,310 5.5 -13.9°
Reaches altitude 10° 05:35:20 10° 195° (SSW) 2,373 5.0 -14.3°
Maximum altitude 05:38:35 17° 233° (SW) 1,918 5.0 -14.8°
Drops below altitude 10° 05:41:49 10° 272° (W) 2,341 6.2 -15.3°
Sets 05:44:51 0° 291° (WNW) 3,246 7.6 -15.7°
